Regional Weather Roundup
Issued by NWS

Home | Current Version | Previous Version | Text Only | Print | Product List | Glossary On
Versions: 1 2 3 4 5 6 7 8 9 10 11 12 13 14 15 16 17 18 19 20 21 22 23 24 25 26 27 28
000
ASPQ40 PGUM 230012
RWRPQ
WEATHER ROUNDUP FOR THE MARIANAS AND MICRONESIA
NATIONAL WEATHER SERVICE TIYAN GU
1000 AM CHST THU OCT 23 2014

GUZ001>004-230100-
MARIANA ISLANDS-

CITY           SKY/WX    TMP DP  RH WIND       PRES   REMARKS
GUAM AIRPORT   MOSUNNY   84  77  79 E6        29.85F HX  94
ANDERSEN AFB   SUNNY     79  75  89 NE9       29.85F
ROTA AIRPORT   MOSUNNY   81  77  89 NE5       29.86F
TINIAN AP      MOSUNNY   84  77  79 E10       29.84F HX  94
SAIPAN AP      SUNNY     88  75  66 N8        29.85F HX  97

$$

PMZ161-230100-
REPUBLIC OF PALAU-

CITY           SKY/WX    TMP DP  RH WIND       PRES   REMARKS
KOROR AP       NOT AVBL
KOROR WSO      CLOUDY    84  77  79 N3        29.84R HX  94

$$

PMZ171>174-230100-
FEDERATED STATES OF MICRONESIA-

CITY           SKY/WX    TMP DP  RH WIND       PRES   REMARKS
YAP AIRPORT    MOSUNNY   86  77  74 VRB2      29.84R HX  97
CHUUK AP       CLOUDY    86  82  89 VRB3      29.85S HX 105
POHNPEI AP     CLOUDY    86  79  79 N6        29.85R HX  99
POHNPEI WSO    CLOUDY    88  77  70 N8        29.88F HX 100
KOSRAE AP      NOT AVBL

$$

PMZ181-230100-
REPUBLIC OF THE MARSHALL ISLANDS-

CITY           SKY/WX    TMP DP  RH WIND       PRES   REMARKS
KWAJALEIN AP   SUNNY     88  75  66 NE7       29.83F HX  97
MAJURO AP      NOT AVBL
MAJURO WSO     PTSUNNY   88  79  74 E9        29.82F HX 102

$$




USA.gov is the U.S. government's official web portal to all federal, state and local government web resources and services.